Find Starlink 5682

NORAD ID: 55457 Int'l Des: 2023-015 Owner: SPXS Country: US Constellation: starlink operational
LEOCIRCULAR

Live Position

Loading 3D Globe...

About Starlink 5682

Description loading...

Upcoming Passes

Passes for default location (London). Set your location on the main map for personalized predictions.

Altitude History

Loading altitude history...

Two-Line Element Set

1 55457U 23015J 26121.71485493 -.00005616 00000-0 -19972-3 0 9991
2 55457 43.0018 29.0825 0001028 271.0288 89.0446 15.26761431178833
Epoch: May 1, 2026 • Age: 7 hours

Current Status

Altitude 489.2 km
Velocity 7.63 km/s
Sub-Earth Point 42.55°N, 88.61°W
Launch Date Feb 2, 2023
Age 3.2 years
Type internet

Technical Details

Classification Payload
Mass 305.00 kg
Dry Mass 290.00 kg
Total Mass 305.00 kg
Length 0.20 m
Diameter 2.80 m
Span 9.00 m
Shape Box + pan
Manufacturer SPXS
Bus Type Starlink
Phase Status In Orbit
Owner/State SPXS/US

Most Searched